Regional Weather Roundup
Issued by NWS Sterling, VA

Home | Current Version | Previous Version | Text Only | Print | Product List | Glossary Off
Versions: 1 2 3 4 5 6 7 8 9 10 11 12 13 14 15 16 17 18 19 20 21 22 23 24 25 26 27 28 29 30 31 32 33 34 35 36 37 38 39 40 41 42 43 44 45 46 47 48 49 50

000
ASUS41 KLWX 251210
RWRLWX

REGIONAL WEATHER ROUNDUP
NATIONAL WEATHER SERVICE BALTIMORE MD/WASHINGTON DC
700 AM EST TUE NOV 25 2014

Note: "FAIR" indicates few or no clouds below 12,000 feet
with no significant weather and/or obstructions to visibility.
 TC=TEMPERATURE CELSIUS

 * =Non NWS site. Station does not report precipitation (e.g. rain,
    snow, etc.), thunder, or fog.

DCZ001-MDZ009-015-VAZ040>042-051-053>054-251300-
WASHINGTON METRO

CITY           SKY/WX    TMP DP  RH WIND       PRES   REMARKS
WASHINGTON NAT CLOUDY    56  37  49 N14       29.98R
DULLES         CLOUDY    50  35  56 N12       29.99R
ANDREWS AFB    CLOUDY    55  38  54 NW13      29.97R
FT BELVOIR     CLOUDY    55  37  51 NW7       29.98R
QUANTICO       CLOUDY    55  39  54 NE7       29.99R
COLLEGE PARK*  CLOUDY    55  37  50 NW6       29.97R
LEESBURG*      CLOUDY    52  36  54 NW13G18   29.99R
GAITHERSBURG*  CLOUDY    52  34  50 NW9       30.02R

$$

MDZ006>007-011-014-251300-
BALTIMORE METRO

CITY           SKY/WX    TMP DP  RH WIND       PRES   REMARKS
BWI AIRPORT    CLOUDY    54  37  52 NW9       29.96R
MD SCIENCE CTR   N/A     56  38  50 MISG      29.96R
MARTIN STATE   MOCLDY    54  41  62 W12       29.97R
ANNAPOLIS      CLOUDY    55  38  52 NW9       29.96R
FORT MEADE*    CLOUDY    52  37  58 NW7       29.99S

$$

MDZ012-015-019>023-251300-
MARYLAND EASTERN SHORE

CITY           SKY/WX    TMP DP  RH WIND       PRES   REMARKS
OCEAN CITY     CLOUDY    62  58  86 SW7       29.94R
SALISBURY      CLOUDY    63  58  83 SW6       29.93R
BAY BRIDGE AP*   N/A     54  39  58 NW7       29.95S
CAMBRIDGE*     CLOUDY    59  55  88 W13G20    29.93R
EASTON*        MOCLDY    59  45  58 N7        29.98R

$$

MDZ017>025-251300-
SOUTHERN MARYLAND

CITY           SKY/WX    TMP DP  RH WIND       PRES   REMARKS
PATUXENT RIVER CLOUDY    57  57 100 NE3       29.95R
ST INIGOES     CLOUDY    57  53  86 CALM      29.93R
LEONARDTOWN*   CLOUDY    61  55  82 NW3       29.95R

$$

MDZ003>005-251300-
NORTH CENTRAL MARYLAND

CITY           SKY/WX    TMP DP  RH WIND       PRES   REMARKS
FREDERICK*     CLEAR     52  30  43 NW7       30.02R
HAGERSTOWN APT MOCLDY    47  29  49 W10       30.00R
WESTMINSTER*   CLOUDY    52  34  50 NW6       29.98R

$$

MDZ501>502-251300-
WESTERN MARYLAND

CITY           SKY/WX    TMP DP  RH WIND       PRES   REMARKS
OAKLAND*       MOCLDY    34  30  86 SW14G20   29.96R WCI  24
CUMBERLAND*    MOCLDY    46  30  53 SW8       30.05R

$$

VAZ025>031-251300-
SHENANDOAH VALLEY

CITY           SKY/WX    TMP DP  RH WIND       PRES   REMARKS
WINCHESTER*    CLOUDY    46  30  53 NW5       29.99R
FRONT ROYAL*   FAIR      50  36  57 CALM      29.98R
LURAY*         FAIR      52  37  58 CALM      29.99R
NEW MARKET*    FAIR      43  38  84 CALM      29.99R
STAUNTON*      CLOUDY    49  37  63 CALM      30.01R
WAYNESBORO*    FAIR      48  35  60 W8        29.99R

$$

WVZ021-048>050-054>055-251300-
EASTERN WEST VIRGINIA PANHANDLE

CITY           SKY/WX    TMP DP  RH WIND       PRES   REMARKS
MARTINSBURG    CLOUDY    49  29  46 NW6       30.00R
PETERSBURG*    CLOUDY    45  28  50 NW5       30.02R

$$

VAZ036>039-050-251300-
CENTRAL FOOTHILLS

CITY           SKY/WX    TMP DP  RH WIND       PRES   REMARKS
CHARLOTTESVILL CLOUDY    55  37  50 VRB3      29.97R
CULPEPER*      CLOUDY    52  43  71 CALM      29.97R
ORANGE*        CLOUDY    52  45  76 N3        29.98R
GORDONSVILLE*  FAIR      53  43  70 CALM      29.97R
WARRENTON*     FAIR      52  45  78 NE5       29.97R

$$

VAZ055>057-251300-
NORTH AND CENTRAL PIEDMONT

CITY           SKY/WX    TMP DP  RH WIND       PRES   REMARKS
FREDERICKSBRG* CLOUDY    57  43  58 N6        29.96R
STAFFORD*      CLOUDY    55  39  56 N5        30.01R

$$

NCZ024-NYZ072-PAZ021-071-VAZ022-071-251300-
OTHER REGIONAL OBSERVATIONS

CITY           SKY/WX    TMP DP  RH WIND       PRES   REMARKS
NEW YORK CITY  CLOUDY    61  40  45 VRB5      29.92R
PHILADELPHIA   CLOUDY    59  36  42 W12       29.94R
PITTSBURGH     PTCLDY    39  30  70 SW14      29.96R
ROANOKE        CLOUDY    49  35  58 NW12      30.05R
RICHMOND       CLOUDY    59  57  93 S7        29.95R FOG
RALEIGH        CLOUDY    61  55  81 SW7       29.98F

$$

ANZ530>537-251300-
MARINE OBSERVATIONS

STATION/POSITION TIME  TEMP    WIND        PRES
                       AIR SEA DIR/SP/G
                 (UTC) (F)     (DEG/KT/KT) (MB)
THOMAS PT LIGHT  1200   56 48  330/ 12/ 13 1015.4R
BALT KEY BRIDGE  1200   56     280/  9/ 11 1014.2S
COVE POINT       1200   56      10/ 12/ 19 1013.6R
LEWISETTA        1200   62 50  240/  5/  5 1013.3R
SOLOMONS ISLAND  1200      50                N/A
PINEY POINT      1200           40/  3/  4   N/A

$$



USA.gov is the U.S. government's official web portal to all federal, state and local government web resources and services.